| time (UTC) | temp C | wind direction | speed KPH | gust KPH | rain 1hr cm | rain 24hr cm | rain mn cm | humidity % | barometer mb |
| 20260901115030 | 18 | 268 | 33.8 | 43.5 | 0.00 | 0.00 | 0.00 | 72 | 1019.3 |
| 20260901114030 | 18 | 263 | 32.2 | 38.6 | 0.00 | 0.00 | 0.00 | 74 | 1019.3 |
| 20260901113030 | 17 | 281 | 33.8 | 43.5 | 0.00 | 0.00 | 0.00 | 76 | 1019.2 |
| 20260901112029 | 17 | 271 | 33.8 | 43.5 | 0.00 | 0.00 | 0.00 | 74 | 1019.1 |
| 20260901111030 | 18 | 251 | 30.6 | 40.2 | 0.00 | 0.00 | 0.00 | 70 | 1019.1 |
| 20260901110030 | 18 | 249 | 29.0 | 38.6 | 0.00 | 0.00 | 0.00 | 69 | 1019.1 |
| 20260901105029 | 18 | 232 | 27.4 | 37.0 | 0.00 | 0.00 | 0.00 | 69 | 1019.1 |
| 20260901104030 | 17 | 253 | 32.2 | 40.2 | 0.00 | 0.00 | 0.00 | 70 | 1019.1 |
| 20260901103030 | 17 | 244 | 30.6 | 40.2 | 0.00 | 0.00 | 0.00 | 73 | 1019.0 |
| 20260901102030 | 17 | 254 | 32.2 | 43.5 | 0.00 | 0.00 | 0.00 | 74 | 1019.0 |
| 20260901101030 | 17 | 248 | 29.0 | 41.8 | 0.00 | 0.00 | 0.00 | 74 | 1018.9 |
| 20260901100029 | 17 | 241 | 29.0 | 35.4 | 0.00 | 0.00 | 0.00 | 73 | 1018.8 |
| 20260901095030 | 17 | 253 | 29.0 | 41.8 | 0.00 | 0.00 | 0.00 | 71 | 1018.9 |
| 20260901094030 | 17 | 245 | 27.4 | 38.6 | 0.00 | 0.00 | 0.00 | 76 | 1018.9 |
| 20260901093030 | 17 | 258 | 32.2 | 43.5 | 0.00 | 0.00 | 0.00 | 73 | 1018.8 |
| 20260901092030 | 17 | 255 | 33.8 | 41.8 | 0.00 | 0.00 | 0.00 | 75 | 1018.7 |
| 20260901091030 | 17 | 262 | 33.8 | 41.8 | 0.00 | 0.00 | 0.00 | 76 | 1018.6 |
| 20260901090030 | 17 | 242 | 25.7 | 37.0 | 0.00 | 0.00 | 0.00 | 77 | 1018.6 |
| 20260901085030 | 17 | 248 | 22.5 | 30.6 | 0.00 | 0.00 | 0.00 | 79 | 1018.5 |
| 20260901084029 | 17 | 237 | 24.1 | 33.8 | 0.00 | 0.00 | 0.00 | 79 | 1018.5 |
| 20260901083030 | 17 | 249 | 24.1 | 32.2 | 0.00 | 0.00 | 0.00 | 80 | 1018.3 |
| 20260901082030 | 17 | 261 | 25.7 | 33.8 | 0.00 | 0.00 | 0.00 | 79 | 1018.1 |
| 20260901081029 | 17 | 241 | 25.7 | 33.8 | 0.00 | 0.00 | 0.00 | 78 | 1017.9 |
| 20260901080030 | 17 | 247 | 24.1 | 30.6 | 0.00 | 0.00 | 0.00 | 80 | 1017.8 |
| 20260901075030 | 17 | 245 | 24.1 | 30.6 | 0.00 | 0.00 | 0.00 | 80 | 1017.7 |
| 20260901074030 | 17 | 233 | 22.5 | 29.0 | 0.00 | 0.00 | 0.00 | 81 | 1017.7 |
| 20260901073030 | 17 | 250 | 24.1 | 30.6 | 0.00 | 0.00 | 0.00 | 80 | 1017.5 |
| 20260901072030 | 17 | 251 | 24.1 | 32.2 | 0.00 | 0.00 | 0.00 | 80 | 1017.4 |
| 20260901071030 | 17 | 246 | 25.7 | 33.8 | 0.00 | 0.00 | 0.00 | 81 | 1017.4 |
| 20260901070030 | 17 | 250 | 27.4 | 35.4 | 0.00 | 0.00 | 0.00 | 81 | 1017.3 |
| 20260901065030 | 17 | 237 | 27.4 | 37.0 | 0.00 | 0.00 | 0.00 | 82 | 1017.1 |
| 20260901064030 | 17 | 248 | 24.1 | 30.6 | 0.00 | 0.00 | 0.00 | 82 | 1017.1 |
| 20260901063030 | 17 | 237 | 24.1 | 30.6 | 0.00 | 0.00 | 0.00 | 83 | 1017.1 |
| 20260901062030 | 17 | 240 | 24.1 | 29.0 | 0.00 | 0.00 | 0.00 | 84 | 1016.9 |
| 20260901061030 | 17 | 241 | 22.5 | 30.6 | 0.00 | 0.00 | 0.00 | 85 | 1016.8 |
| 20260901060030 | 16 | 236 | 17.7 | 30.6 | 0.00 | 0.00 | 0.00 | 89 | 1016.7 |
| 20260901055030 | 16 | 224 | 14.5 | 22.5 | 0.00 | 0.00 | 0.00 | 90 | 1016.9 |
| 20260901054029 | 16 | 209 | 11.3 | 20.9 | 0.00 | 0.00 | 0.00 | 91 | 1016.7 |
| 20260901053038 | 16 | 218 | 11.3 | 20.9 | 0.00 | 0.00 | 0.00 | 91 | 1016.7 |
| 20260901052030 | 15 | 209 | 9.7 | 17.7 | 0.00 | 0.00 | 0.00 | 91 | 1016.6 |
| 20260901051030 | 16 | 212 | 11.3 | 17.7 | 0.00 | 0.00 | 0.00 | 91 | 1016.5 |
| 20260901050030 | 15 | 205 | 9.7 | 17.7 | 0.00 | 0.00 | 0.00 | 91 | 1016.5 |
| 20260901045030 | 15 | 191 | 9.7 | 16.1 | 0.00 | 0.00 | 0.00 | 90 | 1016.4 |
| 20260901044030 | 15 | 189 | 9.7 | 17.7 | 0.00 | 0.00 | 0.00 | 90 | 1016.4 |
| 20260901043030 | 16 | 190 | 9.7 | 16.1 | 0.00 | 0.00 | 0.00 | 90 | 1016.3 |
| 20260901042030 | 16 | 195 | 8.0 | 16.1 | 0.00 | 0.00 | 0.00 | 89 | 1016.2 |
| 20260901041030 | 16 | 199 | 9.7 | 16.1 | 0.00 | 0.00 | 0.00 | 89 | 1016.2 |
| 20260901040030 | 16 | 193 | 9.7 | 14.5 | 0.00 | 0.00 | 0.00 | 88 | 1016.2 |
| 20260901035030 | 16 | 203 | 9.7 | 17.7 | 0.00 | 0.00 | 0.00 | 87 | 1016.1 |
| 20260901034030 | 17 | 209 | 9.7 | 16.1 | 0.00 | 0.00 | 0.00 | 86 | 1016.1 |
| 20260901033030 | 17 | 248 | 17.7 | 25.7 | 0.00 | 0.00 | 0.00 | 85 | 1016.1 |
| 20260901032030 | 17 | 247 | 20.9 | 27.4 | 0.00 | 0.00 | 0.00 | 86 | 1015.9 |
| 20260901031031 | 17 | 253 | 14.5 | 27.4 | 0.00 | 0.00 | 0.00 | 90 | 1015.8 |
| 20260901030030 | 16 | 203 | 6.4 | 14.5 | 0.00 | 0.00 | 0.00 | 89 | 1015.9 |
| 20260901025030 | 16 | 217 | 11.3 | 17.7 | 0.00 | 0.00 | 0.00 | 89 | 1015.9 |
| 20260901024030 | 16 | 205 | 11.3 | 17.7 | 0.00 | 0.00 | 0.00 | 89 | 1015.9 |
| 20260901023030 | 16 | 216 | 9.7 | 19.3 | 0.00 | 0.00 | 0.00 | 88 | 1015.8 |
| 20260901022029 | 17 | 208 | 9.7 | 19.3 | 0.00 | 0.00 | 0.00 | 87 | 1015.9 |
| 20260901021030 | 17 | 213 | 14.5 | 24.1 | 0.00 | 0.00 | 0.00 | 86 | 1015.9 |
| 20260901020030 | 17 | 243 | 16.1 | 24.1 | 0.00 | 0.00 | 0.00 | 87 | 1015.7 |
| 20260901015030 | 17 | 231 | 19.3 | 24.1 | 0.00 | 0.00 | 0.00 | 87 | 1015.6 |
| 20260901014030 | 17 | 242 | 17.7 | 24.1 | 0.00 | 0.00 | 0.00 | 88 | 1015.5 |
| 20260901013030 | 17 | 225 | 12.9 | 22.5 | 0.00 | 0.00 | 0.00 | 89 | 1015.6 |
| 20260901012030 | 16 | 223 | 14.5 | 24.1 | 0.00 | 0.00 | 0.00 | 89 | 1015.6 |
| 20260901011031 | 16 | 218 | 17.7 | 25.7 | 0.00 | 0.00 | 0.00 | 89 | 1015.6 |
| 20260901010030 | 16 | 219 | 14.5 | 24.1 | 0.00 | 0.00 | 0.00 | 89 | 1015.6 |
| 20260901005030 | 16 | 215 | 12.9 | 25.7 | 0.00 | 0.00 | 0.00 | 88 | 1015.5 |
| 20260901004029 | 16 | 207 | 12.9 | 25.7 | 0.00 | 0.00 | 0.00 | 88 | 1015.5 |
| 20260901003030 | 16 | 203 | 14.5 | 20.9 | 0.00 | 0.00 | 0.00 | 88 | 1015.4 |
| 20260901002030 | 16 | 203 | 12.9 | 22.5 | 0.00 | 0.00 | 0.00 | 87 | 1015.3 |
| 20260901001030 | 16 | 203 | 14.5 | 20.9 | 0.00 | 0.00 | 0.00 | 86 | 1015.3 |
| 20260901000030 | 17 | 214 | 12.9 | 22.5 | 0.00 | 0.00 | 0.00 | 87 | 1015.3 |
| 20260831235029 | 17 | 208 | 11.3 | 19.3 | 0.00 | 0.00 | 0.00 | 87 | 1015.3 |
| 20260831234030 | 17 | 206 | 9.7 | 14.5 | 0.00 | 0.00 | 0.00 | 87 | 1015.2 |
| 20260831233030 | 17 | 215 | 9.7 | 16.1 | 0.00 | 0.00 | 0.00 | 86 | 1015.1 |
| 20260831232030 | 17 | 201 | 9.7 | 16.1 | 0.00 | 0.00 | 0.00 | 86 | 1015.0 |
| 20260831231029 | 17 | 200 | 9.7 | 16.1 | 0.00 | 0.00 | 0.00 | 86 | 1015.1 |
| 20260831230030 | 17 | 204 | 9.7 | 14.5 | 0.00 | 0.00 | 0.00 | 86 | 1015.2 |
| 20260831225030 | 17 | 201 | 8.0 | 14.5 | 0.00 | 0.00 | 0.00 | 86 | 1015.2 |
| 20260831224030 | 17 | 208 | 11.3 | 17.7 | 0.00 | 0.00 | 0.00 | 86 | 1015.1 |
| 20260831223030 | 17 | 208 | 11.3 | 17.7 | 0.00 | 0.00 | 0.00 | 86 | 1015.1 |
| 20260831222030 | 17 | 206 | 9.7 | 14.5 | 0.00 | 0.00 | 0.00 | 85 | 1015.1 |
| 20260831221030 | 18 | 218 | 11.3 | 20.9 | 0.00 | 0.00 | 0.00 | 85 | 1015.1 |
| 20260831220030 | 18 | 242 | 19.3 | 25.7 | 0.00 | 0.00 | 0.38 | 85 | 1014.9 |
| 20260831215030 | 18 | 233 | 17.7 | 24.1 | 0.00 | 0.00 | 0.38 | 85 | 1014.9 |
| 20260831214030 | 18 | 245 | 20.9 | 27.4 | 0.00 | 0.00 | 0.38 | 85 | 1014.8 |
| 20260831213030 | 18 | 244 | 19.3 | 27.4 | 0.00 | 0.00 | 0.38 | 85 | 1014.7 |
| 20260831212030 | 18 | 241 | 20.9 | 27.4 | 0.00 | 0.00 | 0.38 | 85 | 1014.7 |
| 20260831211029 | 18 | 244 | 20.9 | 27.4 | 0.00 | 0.00 | 0.38 | 84 | 1014.5 |
| 20260831210030 | 18 | 242 | 20.9 | 32.2 | 0.00 | 0.00 | 0.38 | 84 | 1014.4 |
| 20260831205030 | 18 | 246 | 24.1 | 32.2 | 0.00 | 0.00 | 0.38 | 84 | 1014.3 |
| 20260831204029 | 18 | 246 | 25.7 | 33.8 | 0.00 | 0.00 | 0.38 | 85 | 1014.3 |
| 20260831203030 | 18 | 258 | 29.0 | 37.0 | 0.00 | 0.00 | 0.38 | 84 | 1014.2 |
| 20260831202030 | 18 | 260 | 35.4 | 41.8 | 0.00 | 0.00 | 0.38 | 84 | 1014.1 |
| 20260831201030 | 18 | 252 | 33.8 | 41.8 | 0.00 | 0.00 | 0.38 | 84 | 1013.9 |
| 20260831200030 | 18 | 248 | 37.0 | 48.3 | 0.00 | 0.00 | 0.38 | 84 | 1013.9 |
| 20260831195030 | 18 | 251 | 38.6 | 48.3 | 0.00 | 0.00 | 0.38 | 84 | 1013.6 |
| 20260831194030 | 18 | 246 | 33.8 | 45.1 | 0.00 | 0.00 | 0.38 | 83 | 1013.4 |
| 20260831193030 | 18 | 257 | 35.4 | 45.1 | 0.00 | 0.00 | 0.38 | 83 | 1013.4 |
| 20260831192030 | 18 | 249 | 35.4 | 51.5 | 0.00 | 0.00 | 0.38 | 83 | 1013.1 |
| 20260831191030 | 18 | 252 | 33.8 | 45.1 | 0.00 | 0.00 | 0.38 | 83 | 1013.2 |
| 20260831190030 | 18 | 252 | 37.0 | 48.3 | 0.00 | 0.00 | 0.38 | 83 | 1012.9 |
| 20260831185030 | 18 | 253 | 38.6 | 49.9 | 0.00 | 0.00 | 0.38 | 83 | 1012.7 |
| 20260831184029 | 18 | 256 | 38.6 | 49.9 | 0.00 | 0.00 | 0.38 | 83 | 1012.6 |
| 20260831183030 | 18 | 260 | 40.2 | 49.9 | 0.00 | 0.00 | 0.38 | 84 | 1012.3 |
| 20260831182030 | 18 | 247 | 40.2 | 54.7 | 0.00 | 0.00 | 0.38 | 84 | 1012.2 |
| 20260831181030 | 18 | 240 | 41.8 | 51.5 | 0.00 | 0.00 | 0.38 | 84 | 1012.0 |
| 20260831180030 | 18 | 237 | 38.6 | 53.1 | 0.00 | 0.00 | 0.38 | 85 | 1012.0 |
| 20260831175030 | 17 | 249 | 41.8 | 53.1 | 0.00 | 0.00 | 0.38 | 85 | 1011.7 |
| 20260831174029 | 18 | 237 | 43.5 | 61.2 | 0.00 | 0.00 | 0.38 | 83 | 1011.4 |
| 20260831173033 | 18 | 259 | 48.3 | 62.8 | 0.00 | 0.00 | 0.38 | 83 | 1011.2 |
| 20260831172030 | 18 | 256 | 46.7 | 61.2 | 0.00 | 0.00 | 0.38 | 81 | 1011.2 |
| 20260831171030 | 18 | 255 | 54.7 | 67.6 | 0.00 | 0.00 | 0.38 | 81 | 1010.9 |
| 20260831170030 | 18 | 252 | 54.7 | 75.6 | 0.00 | 0.00 | 0.38 | 83 | 1010.8 |
| 20260831165030 | 18 | 251 | 45.1 | 67.6 | 0.00 | 0.00 | 0.38 | 81 | 1010.5 |
| 20260831164030 | 18 | 246 | 40.2 | 54.7 | 0.00 | 0.00 | 0.38 | 81 | 1010.8 |
| 20260831163030 | 18 | 243 | 41.8 | 56.3 | 0.00 | 0.00 | 0.38 | 79 | 1010.6 |
| 20260831162029 | 18 | 243 | 41.8 | 57.9 | 0.00 | 0.00 | 0.38 | 80 | 1010.4 |
| 20260831161030 | 18 | 257 | 40.2 | 57.9 | 0.00 | 0.00 | 0.38 | 79 | 1010.1 |
| 20260831160030 | 18 | 249 | 40.2 | 53.1 | 0.00 | 0.00 | 0.38 | 80 | 1010.2 |
| 20260831155030 | 18 | 241 | 33.8 | 46.7 | 0.00 | 0.00 | 0.38 | 82 | 1010.2 |
| 20260831154030 | 18 | 250 | 40.2 | 59.5 | 0.00 | 0.00 | 0.38 | 81 | 1010.1 |
| 20260831153030 | 18 | 250 | 41.8 | 51.5 | 0.00 | 0.00 | 0.38 | 80 | 1009.9 |
| 20260831152029 | 18 | 249 | 43.5 | 57.9 | 0.00 | 0.00 | 0.38 | 78 | 1009.8 |
| 20260831151030 | 18 | 257 | 43.5 | 56.3 | 0.00 | 0.00 | 0.38 | 78 | 1009.7 |
| 20260831150030 | 18 | 250 | 38.6 | 53.1 | 0.00 | 0.00 | 0.38 | 80 | 1009.6 |
| 20260831145030 | 17 | 240 | 35.4 | 48.3 | 0.00 | 0.00 | 0.38 | 82 | 1009.7 |
| 20260831144030 | 17 | 246 | 37.0 | 49.9 | 0.00 | 0.00 | 0.38 | 82 | 1009.6 |
| 20260831143030 | 17 | 257 | 38.6 | 51.5 | 0.00 | 0.00 | 0.38 | 82 | 1009.4 |
| 20260831142029 | 17 | 233 | 40.2 | 56.3 | 0.00 | 0.00 | 0.38 | 81 | 1009.3 |
| 20260831141030 | 17 | 239 | 43.5 | 53.1 | 0.00 | 0.00 | 0.38 | 80 | 1009.0 |
| 20260831140030 | 18 | 251 | 45.1 | 61.2 | 0.00 | 0.00 | 0.38 | 80 | 1008.6 |
| 20260831135030 | 17 | 253 | 38.6 | 49.9 | 0.00 | 0.00 | 0.38 | 82 | 1008.6 |
| 20260831134030 | 17 | 258 | 45.1 | 59.5 | 0.00 | 0.00 | 0.38 | 81 | 1008.6 |
| 20260831133030 | 17 | 247 | 41.8 | 57.9 | 0.00 | 0.00 | 0.38 | 80 | 1008.5 |
| 20260831132030 | 18 | 247 | 35.4 | 43.5 | 0.00 | 0.00 | 0.38 | 80 | 1008.6 |
| 20260831131030 | 17 | 240 | 40.2 | 51.5 | 0.00 | 0.00 | 0.38 | 80 | 1008.4 |
| 20260831130030 | 17 | 239 | 41.8 | 51.5 | 0.00 | 0.00 | 0.38 | 79 | 1008.2 |
| 20260831125030 | 17 | 248 | 41.8 | 57.9 | 0.00 | 0.00 | 0.38 | 80 | 1008.0 |
| 20260831124030 | 17 | 250 | 45.1 | 62.8 | 0.00 | 0.00 | 0.38 | 81 | 1008.0 |
| 20260831123029 | 17 | 250 | 35.4 | 53.1 | 0.00 | 0.00 | 0.38 | 80 | 1007.8 |
| 20260831122030 | 17 | 232 | 35.4 | 45.1 | 0.00 | 0.00 | 0.38 | 81 | 1007.9 |
| 20260831121030 | 17 | 238 | 35.4 | 54.7 | 0.00 | 0.00 | 0.38 | 81 | 1007.6 |
| 20260831120030 | 17 | 236 | 37.0 | 51.5 | 0.00 | 0.00 | 0.38 | 84 | 1007.6 |